AAL493 KJFK-KCLT

Flight info

Callsign AAL493
Flight time 1h 28m
Altitude 38000
Route RBV Q430 COPES Q75 GVE AIROW CHSLY6
Aircraft A319/M-SDE3FGHIRWY/LB1

Departure

Time 2026-05-09 15:08
Airport John F. Kennedy International Airport (KJFK)

Arrival

Time 2026-05-09 16:36
Airport Charlotte Douglas International Airport (KCLT)
Time Latitude Longitude Altitude Speed Heading
2026-05-09 14:33 40.64974 -73.79245 24 ft 0 kts 331°
2026-05-09 14:55 40.64957 -73.79232 24 ft 4 kts 331°
2026-05-09 14:55 40.64938 -73.79218 27 ft 3 kts 333°
2026-05-09 14:56 40.64919 -73.79214 26 ft 4 kts 46°
2026-05-09 14:56 40.64906 -73.79240 25 ft 2 kts 60°
2026-05-09 14:56 40.64905 -73.79241 25 ft 0 kts 60°
2026-05-09 14:59 40.64907 -73.79237 25 ft 1 kts 60°
2026-05-09 14:59 40.64919 -73.79210 24 ft 6 kts 60°
2026-05-09 14:59 40.64952 -73.79132 26 ft 13 kts 60°
2026-05-09 14:59 40.65001 -73.79017 24 ft 15 kts 60°
2026-05-09 15:00 40.65045 -73.78926 25 ft 10 kts 39°
2026-05-09 15:00 40.65118 -73.78911 24 ft 10 kts
2026-05-09 15:00 40.65139 -73.78835 24 ft 10 kts 88°
2026-05-09 15:00 40.65153 -73.78737 25 ft 12 kts 69°
2026-05-09 15:01 40.65227 -73.78561 26 ft 14 kts 61°
2026-05-09 15:01 40.65268 -73.78436 23 ft 15 kts 84°
2026-05-09 15:01 40.65235 -73.78309 27 ft 14 kts 120°
2026-05-09 15:02 40.65180 -73.78190 24 ft 16 kts 121°
2026-05-09 15:02 40.65130 -73.78079 23 ft 10 kts 121°
2026-05-09 15:02 40.65121 -73.78000 22 ft 10 kts 45°
2026-05-09 15:02 40.65190 -73.77943 20 ft 14 kts 31°
2026-05-09 15:03 40.65281 -73.77871 19 ft 16 kts 31°
2026-05-09 15:03 40.65349 -73.77817 21 ft 5 kts 53°
2026-05-09 15:03 40.65338 -73.77770 20 ft 7 kts 121°
2026-05-09 15:03 40.65302 -73.77692 20 ft 13 kts 121°
2026-05-09 15:04 40.65242 -73.77563 18 ft 20 kts 121°
2026-05-09 15:04 40.65168 -73.77401 20 ft 20 kts 121°
2026-05-09 15:06 40.65000 -73.76604 21 ft 17 kts 30°
2026-05-09 15:06 40.65086 -73.76536 21 ft 11 kts 31°
2026-05-09 15:06 40.65090 -73.76451 24 ft 11 kts 120°
2026-05-09 15:06 40.65052 -73.76367 23 ft 9 kts 121°
2026-05-09 15:07 40.65019 -73.76357 22 ft 6 kts 208°
2026-05-09 15:07 40.64926 -73.76431 22 ft 44 kts 211°
2026-05-09 15:07 40.64441 -73.76811 19 ft 115 kts 210°
2026-05-09 15:07 40.63591 -73.77480 100 ft 160 kts 210°
2026-05-09 15:08 40.62665 -73.78237 807 ft 156 kts 210°
2026-05-09 15:08 40.60713 -73.79794 2035 ft 179 kts 213°
2026-05-09 15:08 40.59581 -73.80703 2462 ft 203 kts 214°
2026-05-09 15:09 40.58308 -73.81730 3065 ft 225 kts 214°
2026-05-09 15:10 40.48285 -73.89761 9780 ft 251 kts 211°
2026-05-09 15:11 40.46766 -73.90979 10427 ft 265 kts 212°
2026-05-09 15:11 40.45130 -73.92296 10792 ft 285 kts 212°
2026-05-09 15:11 40.43414 -73.93678 11480 ft 293 kts 213°
2026-05-09 15:11 40.41671 -73.95110 12232 ft 298 kts 218°
2026-05-09 15:12 40.40256 -73.97082 13017 ft 300 kts 238°
2026-05-09 15:12 40.39285 -73.99522 13858 ft 303 kts 243°
2026-05-09 15:12 40.38347 -74.02003 14639 ft 304 kts 244°
2026-05-09 15:12 40.37406 -74.04501 15389 ft 306 kts 244°
2026-05-09 15:13 40.36459 -74.07014 16094 ft 310 kts 244°
2026-05-09 15:13 40.35496 -74.09560 16793 ft 313 kts 244°
2026-05-09 15:13 40.34523 -74.12127 17493 ft 316 kts 244°
2026-05-09 15:13 40.33538 -74.14720 18198 ft 320 kts 244°
2026-05-09 15:14 40.32541 -74.17342 18806 ft 323 kts 244°
2026-05-09 15:14 40.31537 -74.19993 19420 ft 326 kts 244°
2026-05-09 15:14 40.30526 -74.22659 20037 ft 328 kts 244°
2026-05-09 15:14 40.29514 -74.25316 20649 ft 331 kts 244°
2026-05-09 15:15 40.28466 -74.28058 21267 ft 334 kts 244°
2026-05-09 15:15 40.27774 -74.29864 21663 ft 336 kts 244°
2026-05-09 15:15 40.26376 -74.33507 22418 ft 340 kts 244°
2026-05-09 15:15 40.25308 -74.36293 22998 ft 344 kts 244°
2026-05-09 15:16 40.24229 -74.39109 23557 ft 347 kts 244°
2026-05-09 15:16 40.23142 -74.41943 24041 ft 350 kts 244°
2026-05-09 15:16 40.22046 -74.44798 24528 ft 352 kts 244°
2026-05-09 15:16 40.20964 -74.47677 25006 ft 354 kts 248°
2026-05-09 15:17 40.20213 -74.50743 25459 ft 356 kts 257°
2026-05-09 15:17 40.19884 -74.53959 25931 ft 358 kts 263°
2026-05-09 15:17 40.19634 -74.57204 26391 ft 360 kts 263°
2026-05-09 15:17 40.19382 -74.60470 26847 ft 362 kts 263°
2026-05-09 15:18 40.19127 -74.63747 27316 ft 363 kts 263°
2026-05-09 15:18 40.18867 -74.67047 27772 ft 365 kts 263°
2026-05-09 15:18 40.18605 -74.70353 28218 ft 367 kts 263°
2026-05-09 15:18 40.18340 -74.73682 28659 ft 369 kts 263°
2026-05-09 15:19 40.18074 -74.77028 29084 ft 371 kts 263°
2026-05-09 15:19 40.17806 -74.80393 29495 ft 373 kts 263°
2026-05-09 15:19 40.17535 -74.83770 29903 ft 375 kts 263°
2026-05-09 15:19 40.17260 -74.87163 30257 ft 377 kts 263°
2026-05-09 15:20 40.16981 -74.90577 30582 ft 379 kts 263°
2026-05-09 15:20 40.16419 -74.97457 31198 ft 383 kts 263°
2026-05-09 15:20 40.16137 -75.00927 31508 ft 385 kts 263°
2026-05-09 15:21 40.15853 -75.04415 31795 ft 387 kts 263°
2026-05-09 15:21 40.15566 -75.07923 32122 ft 388 kts 263°
2026-05-09 15:21 40.15281 -75.11416 32568 ft 386 kts 263°
2026-05-09 15:21 40.14998 -75.14898 33002 ft 384 kts 263°
2026-05-09 15:22 40.14711 -75.18370 33431 ft 383 kts 263°
2026-05-09 15:22 40.14422 -75.21826 33856 ft 382 kts 263°
2026-05-09 15:22 40.14130 -75.25277 34228 ft 382 kts 263°
2026-05-09 15:22 40.13836 -75.28716 34571 ft 381 kts 263°
2026-05-09 15:23 40.13529 -75.32152 34908 ft 380 kts 261°
2026-05-09 15:23 40.12891 -75.35501 35235 ft 381 kts 252°
2026-05-09 15:23 40.11797 -75.38655 35559 ft 383 kts 243°
2026-05-09 15:23 40.10271 -75.41518 35878 ft 387 kts 234°
2026-05-09 15:24 40.08441 -75.44106 36228 ft 388 kts 232°
2026-05-09 15:24 40.06590 -75.46671 36560 ft 388 kts 232°
2026-05-09 15:24 40.04776 -75.49182 36870 ft 387 kts 232°
2026-05-09 15:24 40.02893 -75.51784 37179 ft 387 kts 232°
2026-05-09 15:25 40.01042 -75.54339 37505 ft 387 kts 232°
2026-05-09 15:25 39.99196 -75.56885 37775 ft 386 kts 232°
2026-05-09 15:25 39.97380 -75.59392 37974 ft 385 kts 232°
2026-05-09 15:26 39.91906 -75.66934 37998 ft 380 kts 233°
2026-05-09 15:26 39.88480 -75.72135 37985 ft 377 kts 236°
2026-05-09 15:27 39.85222 -75.77484 37985 ft 377 kts 237°
2026-05-09 15:27 39.81961 -75.82826 37982 ft 376 kts 236°
2026-05-09 15:28 39.78663 -75.88117 37976 ft 377 kts 236°
2026-05-09 15:28 39.75345 -75.93384 37974 ft 377 kts 236°
2026-05-09 15:29 39.72580 -75.97762 37963 ft 377 kts 236°
2026-05-09 15:29 39.69256 -76.03024 37965 ft 377 kts 236°
2026-05-09 15:30 39.65936 -76.08284 37963 ft 377 kts 236°
2026-05-09 15:30 39.62611 -76.13543 37946 ft 377 kts 236°
2026-05-09 15:31 39.59284 -76.18794 37972 ft 376 kts 236°
2026-05-09 15:31 39.55919 -76.23993 37972 ft 376 kts 235°
2026-05-09 15:32 39.52536 -76.29164 37973 ft 376 kts 235°
2026-05-09 15:32 39.49157 -76.34334 37972 ft 376 kts 235°
2026-05-09 15:33 39.45765 -76.39482 37966 ft 377 kts 234°
2026-05-09 15:33 39.42127 -76.44388 37931 ft 378 kts 231°
2026-05-09 15:34 39.38369 -76.49152 37956 ft 378 kts 231°
2026-05-09 15:34 39.34637 -76.53936 37995 ft 378 kts 231°
2026-05-09 15:35 39.30939 -76.58756 37987 ft 377 kts 232°
2026-05-09 15:35 39.27253 -76.63577 37958 ft 377 kts 232°
2026-05-09 15:36 39.23560 -76.68391 37925 ft 377 kts 232°
2026-05-09 15:36 39.19861 -76.73191 37941 ft 377 kts 232°
2026-05-09 15:37 39.16164 -76.77984 37961 ft 377 kts 232°
2026-05-09 15:37 39.12468 -76.82776 37971 ft 377 kts 232°
2026-05-09 15:38 39.08765 -76.87554 37952 ft 377 kts 232°
2026-05-09 15:38 39.05057 -76.92330 37911 ft 377 kts 232°
2026-05-09 15:39 39.01353 -76.97097 37925 ft 377 kts 232°
2026-05-09 15:39 38.97650 -77.01868 37935 ft 377 kts 232°
2026-05-09 15:40 38.93950 -77.06635 37941 ft 377 kts 232°
2026-05-09 15:40 38.90250 -77.11391 37944 ft 377 kts 232°
2026-05-09 15:41 38.86540 -77.16147 37904 ft 377 kts 232°
2026-05-09 15:41 38.82834 -77.20887 37899 ft 376 kts 232°
2026-05-09 15:42 38.79131 -77.25627 37920 ft 376 kts 232°
2026-05-09 15:42 38.75424 -77.30360 37923 ft 376 kts 232°
2026-05-09 15:43 38.71681 -77.35069 37944 ft 378 kts 231°
2026-05-09 15:43 38.67774 -77.39609 37943 ft 380 kts 230°
2026-05-09 15:44 38.63817 -77.44088 37958 ft 380 kts 230°
2026-05-09 15:44 38.59887 -77.48589 37974 ft 379 kts 231°
2026-05-09 15:45 38.56000 -77.53070 37951 ft 379 kts 231°
2026-05-09 15:45 38.52088 -77.57575 37951 ft 378 kts 231°
2026-05-09 15:46 38.48175 -77.62072 37947 ft 379 kts 231°
2026-05-09 15:46 38.44251 -77.66570 37907 ft 379 kts 231°
2026-05-09 15:47 38.40329 -77.71065 37925 ft 379 kts 231°
2026-05-09 15:47 38.36406 -77.75551 37937 ft 379 kts 231°
2026-05-09 15:48 38.32476 -77.80030 37950 ft 379 kts 231°
2026-05-09 15:48 38.28548 -77.84506 37939 ft 379 kts 231°
2026-05-09 15:49 38.24621 -77.88974 37910 ft 378 kts 231°
2026-05-09 15:49 38.20699 -77.93416 37920 ft 377 kts 231°
2026-05-09 15:50 38.16787 -77.97859 37952 ft 377 kts 231°
2026-05-09 15:50 38.12877 -78.02294 37960 ft 377 kts 231°
2026-05-09 15:51 38.08963 -78.06713 37948 ft 376 kts 231°
2026-05-09 15:51 38.05051 -78.11127 37930 ft 376 kts 231°
2026-05-09 15:52 37.99478 -78.17983 37945 ft 367 kts 237°
2026-05-09 15:53 37.96095 -78.22820 37967 ft 367 kts 237°
2026-05-09 15:53 37.92702 -78.27641 37961 ft 366 kts 237°
2026-05-09 15:54 37.89312 -78.32455 37961 ft 366 kts 237°
2026-05-09 15:54 37.85926 -78.37261 37962 ft 366 kts 237°
2026-05-09 15:55 37.82539 -78.42063 37957 ft 366 kts 237°
2026-05-09 15:55 37.79151 -78.46860 37964 ft 366 kts 237°
2026-05-09 15:56 37.75760 -78.51650 37958 ft 366 kts 237°
2026-05-09 15:56 37.72389 -78.56408 37963 ft 366 kts 237°
2026-05-09 15:57 37.68994 -78.61191 37964 ft 366 kts 237°
2026-05-09 15:57 37.65593 -78.65973 37962 ft 366 kts 237°
2026-05-09 15:58 37.62197 -78.70748 37947 ft 365 kts 237°
2026-05-09 15:58 37.58804 -78.75502 37967 ft 364 kts 237°
2026-05-09 15:59 37.55425 -78.80236 37979 ft 363 kts 237°
2026-05-09 15:59 37.52052 -78.84961 37968 ft 362 kts 237°
2026-05-09 16:00 37.48681 -78.89672 37973 ft 362 kts 237°
2026-05-09 16:00 37.45312 -78.94376 37975 ft 362 kts 237°
2026-05-09 16:01 37.41939 -78.99068 37960 ft 361 kts 237°
2026-05-09 16:01 37.38573 -79.03738 37979 ft 360 kts 237°
2026-05-09 16:02 37.35223 -79.08392 37978 ft 358 kts 237°
2026-05-09 16:02 37.30212 -79.15342 37975 ft 357 kts 237°
2026-05-09 16:03 37.26870 -79.19957 37972 ft 357 kts 237°
2026-05-09 16:03 37.23270 -79.24276 37967 ft 371 kts 227°
2026-05-09 16:04 37.19088 -79.28042 37940 ft 369 kts 227°
2026-05-09 16:04 37.14924 -79.31790 37963 ft 368 kts 227°
2026-05-09 16:05 37.10776 -79.35519 37975 ft 367 kts 227°
2026-05-09 16:05 37.06639 -79.39239 37973 ft 366 kts 227°
2026-05-09 16:06 37.02508 -79.42948 37981 ft 365 kts 227°
2026-05-09 16:06 36.98338 -79.46594 37948 ft 366 kts 226°
2026-05-09 16:07 36.94116 -79.50126 37971 ft 364 kts 226°
2026-05-09 16:07 36.89912 -79.53643 37946 ft 365 kts 226°
2026-05-09 16:08 36.87774 -79.55456 37670 ft 377 kts 226°
2026-05-09 16:08 36.85588 -79.57310 37409 ft 381 kts 226°
2026-05-09 16:08 36.83387 -79.59158 37143 ft 382 kts 226°
2026-05-09 16:08 36.81185 -79.60997 36881 ft 380 kts 226°
2026-05-09 16:09 36.78986 -79.62832 36447 ft 380 kts 226°
2026-05-09 16:09 36.76788 -79.64670 35729 ft 380 kts 226°
2026-05-09 16:09 36.74622 -79.66473 35404 ft 371 kts 226°
2026-05-09 16:09 36.72480 -79.68257 34688 ft 372 kts 226°
2026-05-09 16:10 36.70324 -79.70073 33893 ft 376 kts 226°
2026-05-09 16:10 36.68166 -79.71889 33316 ft 372 kts 226°
2026-05-09 16:10 36.66029 -79.73676 32801 ft 368 kts 226°
2026-05-09 16:10 36.63913 -79.75437 32285 ft 364 kts 225°
2026-05-09 16:11 36.61820 -79.77179 31774 ft 361 kts 225°
2026-05-09 16:11 36.59742 -79.78913 31269 ft 358 kts 225°
2026-05-09 16:11 36.57680 -79.80636 30782 ft 356 kts 225°
2026-05-09 16:11 36.55629 -79.82347 30247 ft 354 kts 225°
2026-05-09 16:12 36.53591 -79.84041 29756 ft 351 kts 224°
2026-05-09 16:12 36.51565 -79.85721 29274 ft 348 kts 224°
2026-05-09 16:12 36.49558 -79.87384 28813 ft 345 kts 224°
2026-05-09 16:12 36.47567 -79.89036 28353 ft 343 kts 224°
2026-05-09 16:13 36.45592 -79.90677 27921 ft 341 kts 224°
2026-05-09 16:13 36.43626 -79.92313 27482 ft 339 kts 224°
2026-05-09 16:13 36.41670 -79.93938 27061 ft 337 kts 224°
2026-05-09 16:13 36.39726 -79.95553 26639 ft 335 kts 224°
2026-05-09 16:14 36.37793 -79.97157 26217 ft 333 kts 224°
2026-05-09 16:14 36.35873 -79.98749 25799 ft 332 kts 224°
2026-05-09 16:14 36.34603 -79.99800 25517 ft 331 kts 224°
2026-05-09 16:14 36.32046 -80.01915 24907 ft 329 kts 224°
2026-05-09 16:15 36.30147 -80.03483 24500 ft 327 kts 224°
2026-05-09 16:15 36.28891 -80.04519 24206 ft 327 kts 224°
2026-05-09 16:15 36.26991 -80.06085 23744 ft 328 kts 224°
2026-05-09 16:15 36.25094 -80.07650 23250 ft 328 kts 223°
2026-05-09 16:16 36.23199 -80.09215 22774 ft 327 kts 223°
2026-05-09 16:16 36.21309 -80.10773 22307 ft 326 kts 223°
2026-05-09 16:16 36.19426 -80.12321 21865 ft 325 kts 223°
2026-05-09 16:16 36.17548 -80.13865 21413 ft 324 kts 222°
2026-05-09 16:17 36.15674 -80.15401 20968 ft 323 kts 222°
2026-05-09 16:17 36.13805 -80.16934 20528 ft 322 kts 222°
2026-05-09 16:17 36.11940 -80.18464 20087 ft 321 kts 221°
2026-05-09 16:17 36.10077 -80.19993 19646 ft 321 kts 221°
2026-05-09 16:18 36.08221 -80.21512 19205 ft 320 kts 221°
2026-05-09 16:18 36.06369 -80.23027 18784 ft 319 kts 221°
2026-05-09 16:18 36.04519 -80.24542 18358 ft 319 kts 221°
2026-05-09 16:18 36.02670 -80.26057 17905 ft 318 kts 220°
2026-05-09 16:19 36.00828 -80.27565 17480 ft 316 kts 220°
2026-05-09 16:19 35.98990 -80.29069 16995 ft 317 kts 220°
2026-05-09 16:19 35.97161 -80.30564 16586 ft 315 kts 220°
2026-05-09 16:19 35.95350 -80.32042 16332 ft 308 kts 220°
2026-05-09 16:20 35.93573 -80.33490 15993 ft 305 kts 220°
2026-05-09 16:20 35.91800 -80.34935 15611 ft 304 kts 220°
2026-05-09 16:20 35.90040 -80.36369 15249 ft 302 kts 220°
2026-05-09 16:20 35.88291 -80.37795 14908 ft 300 kts 220°
2026-05-09 16:21 35.86559 -80.39207 14689 ft 295 kts 220°
2026-05-09 16:21 35.84865 -80.40582 14570 ft 288 kts 220°
2026-05-09 16:21 35.83205 -80.41933 14338 ft 284 kts 220°
2026-05-09 16:21 35.81610 -80.43352 14079 ft 281 kts 223°
2026-05-09 16:22 35.80079 -80.44823 13801 ft 279 kts 224°
2026-05-09 16:22 35.78572 -80.46313 13481 ft 276 kts 224°
2026-05-09 16:22 35.77079 -80.47795 13139 ft 275 kts 224°
2026-05-09 16:22 35.75605 -80.49241 12786 ft 275 kts 223°
2026-05-09 16:23 35.73919 -80.50400 12449 ft 283 kts 208°
2026-05-09 16:23 35.72039 -80.51153 12115 ft 284 kts 205°
2026-05-09 16:23 35.70154 -80.51878 11786 ft 283 kts 205°
2026-05-09 16:23 35.68276 -80.52598 11443 ft 282 kts 205°
2026-05-09 16:24 35.66404 -80.53315 11108 ft 281 kts 205°
2026-05-09 16:24 35.64543 -80.54029 10783 ft 280 kts 204°
2026-05-09 16:24 35.62686 -80.54742 10430 ft 279 kts 205°
2026-05-09 16:24 35.60844 -80.55448 10244 ft 273 kts 205°
2026-05-09 16:25 35.59094 -80.56184 10096 ft 256 kts 214°
2026-05-09 16:25 35.57763 -80.57488 9808 ft 239 kts 237°
2026-05-09 16:25 35.57045 -80.59264 9433 ft 231 kts 257°
2026-05-09 16:25 35.56916 -80.61233 9029 ft 233 kts 269°
2026-05-09 16:26 35.56904 -80.63228 8639 ft 234 kts 269°
2026-05-09 16:26 35.56885 -80.65235 8258 ft 235 kts 269°
2026-05-09 16:26 35.56862 -80.67241 7868 ft 235 kts 268°
2026-05-09 16:26 35.56837 -80.69255 7470 ft 236 kts 268°
2026-05-09 16:27 35.56813 -80.71269 7105 ft 236 kts 268°
2026-05-09 16:27 35.56786 -80.73293 6654 ft 239 kts 267°
2026-05-09 16:27 35.56758 -80.75356 6220 ft 242 kts 268°
2026-05-09 16:27 35.56722 -80.77396 6043 ft 234 kts 265°
2026-05-09 16:28 35.56256 -80.79227 6009 ft 219 kts 244°
2026-05-09 16:28 35.55615 -80.80863 6006 ft 206 kts 245°
2026-05-09 16:28 35.54997 -80.82450 6014 ft 206 kts 245°
2026-05-09 16:28 35.54382 -80.84032 6009 ft 205 kts 245°
2026-05-09 16:29 35.53767 -80.85615 6010 ft 206 kts 245°
2026-05-09 16:29 35.53151 -80.87196 6008 ft 205 kts 245°
2026-05-09 16:29 35.52536 -80.88772 6006 ft 205 kts 245°
2026-05-09 16:29 35.51917 -80.90357 6006 ft 206 kts 244°
2026-05-09 16:30 35.51298 -80.91942 5998 ft 205 kts 245°
2026-05-09 16:30 35.50679 -80.93523 6003 ft 205 kts 244°
2026-05-09 16:30 35.49816 -80.94905 5929 ft 207 kts 221°
2026-05-09 16:30 35.48530 -80.95694 5743 ft 210 kts 196°
2026-05-09 16:31 35.47060 -80.95746 5498 ft 212 kts 180°
2026-05-09 16:31 35.45589 -80.95611 5228 ft 212 kts 180°
2026-05-09 16:31 35.44114 -80.95480 4957 ft 213 kts 180°
2026-05-09 16:31 35.42645 -80.95351 4674 ft 210 kts 180°
2026-05-09 16:32 35.41204 -80.95226 4383 ft 204 kts 180°
2026-05-09 16:32 35.40274 -80.95146 4207 ft 201 kts 179°
2026-05-09 16:32 35.38434 -80.94988 3853 ft 195 kts 180°
2026-05-09 16:32 35.37101 -80.94872 3598 ft 189 kts 180°
2026-05-09 16:33 35.35809 -80.94761 3378 ft 182 kts 180°
2026-05-09 16:33 35.34550 -80.94654 3123 ft 182 kts 180°
2026-05-09 16:33 35.33299 -80.94546 2868 ft 179 kts 180°
2026-05-09 16:33 35.32063 -80.94440 2642 ft 177 kts 179°
2026-05-09 16:34 35.30869 -80.94337 2409 ft 170 kts 179°
2026-05-09 16:34 35.29720 -80.94237 2196 ft 161 kts 180°
2026-05-09 16:34 35.28621 -80.94142 1984 ft 152 kts 180°
2026-05-09 16:34 35.27596 -80.94054 1804 ft 142 kts 182°
2026-05-09 16:35 35.26655 -80.93972 1620 ft 132 kts 182°
2026-05-09 16:35 35.25762 -80.93898 1442 ft 129 kts 181°
2026-05-09 16:35 35.24858 -80.93827 1254 ft 129 kts 179°
2026-05-09 16:35 35.23973 -80.93744 1101 ft 127 kts 180°
2026-05-09 16:36 35.23095 -80.93670 937 ft 126 kts 179°
2026-05-09 16:36 35.21112 -80.93504 735 ft 33 kts 182°
2026-05-09 16:37 35.20951 -80.93531 734 ft 13 kts 198°
2026-05-09 16:37 35.20938 -80.93606 733 ft 11 kts 311°
2026-05-09 16:37 35.21021 -80.93628 733 ft 13 kts 356°
2026-05-09 16:37 35.21118 -80.93637 733 ft 15 kts 355°
2026-05-09 16:38 35.21228 -80.93646 733 ft 17 kts 356°
2026-05-09 16:38 35.21346 -80.93655 733 ft 16 kts 356°
2026-05-09 16:38 35.21423 -80.93689 733 ft 11 kts 316°
2026-05-09 16:38 35.21485 -80.93759 733 ft 13 kts 319°
2026-05-09 16:39 35.21559 -80.93837 733 ft 15 kts 318°
2026-05-09 16:39 35.21640 -80.93925 732 ft 16 kts 319°
2026-05-09 16:39 35.21714 -80.94007 732 ft 11 kts 310°
2026-05-09 16:39 35.21712 -80.94073 732 ft 8 kts 236°
2026-05-09 16:40 35.21722 -80.94124 731 ft 7 kts 316°
2026-05-09 16:40 35.21760 -80.94165 732 ft 5 kts 317°
2026-05-09 16:42 35.21768 -80.94173 732 ft 0 kts 318°